Regional Weather Roundup
Issued by NWS Portland, ME

Current Version | Previous Version | Text Only | Print | Product List | Glossary On
Versions: 1 2 3 4 5 6 7 8 9 10 11 12 13 14 15 16 17 18 19 20 21 22 23 24 25 26 27 28 29 30 31 32 33 34 35 36 37 38 39 40 41 42 43 44 45 46 47 48 49 50
000
ASUS41 KGYX 291810
RWRGYX
WEATHER ROUNDUP FOR MAINE AND NEW HAMPSHIRE
NATIONAL WEATHER SERVICE GRAY ME
200 PM EDT MON AUG 29 2016

MEZ002-005-006-010-012-015-018-020-021-024-026-027-029-291900-
MAINE

CITY           SKY/WX    TMP DP  RH WIND       PRES   REMARKS
PORTLAND       MOSUNNY   83  53  35 NW16G32   30.02R
6HR MIN TEMP:  73; 6HR MAX TEMP:  86;

SANFORD        PTSUNNY   79  53  40 NW14G25   30.03R
BAR HARBOR     MOSUNNY   79  56  45 NW17G29   29.93S
WISCASSET      MOSUNNY   79  53  40 NW10G24   30.02R
6HR MIN TEMP:  70; 6HR MAX TEMP:  82;

ROCKLAND       SUNNY     79  57  46 NW12G24   29.96S
FRYEBURG       PTSUNNY   79  54  41 N7        30.06S
6HR MIN TEMP:  68; 6HR MAX TEMP:  79;

LEWISTONAUBURN PTSUNNY   77  55  46 NW13G23   30.04R
AUGUSTA        MOSUNNY   76  53  44 W16G30    30.02R
6HR MIN TEMP:  65; 6HR MAX TEMP:  78;

WATERVILLE     PTSUNNY   76  55  48 W18G29    29.99R
BANGOR         MOSUNNY   77  52  41 NW21G32   29.95F
6HR MIN TEMP:  67; 6HR MAX TEMP:  79;

GREENVILLE       N/A     64  49  57 NW8G22    30.01R
6HR MIN TEMP:  64; 6HR MAX TEMP:  68;

MILLINOCKET    PTSUNNY   73  53  49 NW15G28   29.96R
6HR MIN TEMP:  67; 6HR MAX TEMP:  73; 6HR PCP:  0.04;

HOULTON        CLOUDY    68  59  73 NW8G21    29.91R
6HR MIN TEMP:  66; 6HR MAX TEMP:  75; 6HR PCP: TRACE;

PRESQUE ISLE   CLOUDY    66  57  72 NW22G28   29.94R
6HR MIN TEMP:  67; 6HR MAX TEMP:  72;

FRENCHVILLE    PTSUNNY   64  52  64 N18G26    29.95R
6HR MIN TEMP:  61; 6HR MAX TEMP:  69; 6HR PCP: TRACE;

CARIBOU        PTSUNNY   69  55  60 NW21G32   29.92R
6HR MIN TEMP:  66; 6HR MAX TEMP:  73; 6HR PCP: TRACE;

$$

NHZ002-005-008-009-011-012-014-291900-
NEW HAMPSHIRE

CITY           SKY/WX    TMP DP  RH WIND       PRES   REMARKS
PORTSMOUTH     MOSUNNY   84  52  33 NW18G31   30.02R
ROCHESTER      MOSUNNY   82  54  37 NW20G29   30.04R
6HR MIN TEMP:  72; 6HR MAX TEMP:  84;

NASHUA         PTSUNNY   86  56  35 NW14G23   30.05S
MANCHESTER     MOSUNNY   83  50  31 NW21G29   30.05R
6HR MIN TEMP:  74; 6HR MAX TEMP:  86;

CONCORD        MOSUNNY   84  52  33 NW22G30   30.07R
6HR MIN TEMP:  73; 6HR MAX TEMP:  85;

PLYMOUTH       PTSUNNY   76  53  44 NW10G18   30.09S
BERLIN         PTSUNNY   72  53  51 N14       30.11R
6HR MIN TEMP:  66; 6HR MAX TEMP:  73; 6HR PCP:  0.01;

WHITEFIELD     PTSUNNY   70  55  59 NW12G22   30.13R
6HR MIN TEMP:  67; 6HR MAX TEMP:  72;

JAFFREY        MOSUNNY   80  54  40 NW13G23   30.11R
6HR MIN TEMP:  68; 6HR MAX TEMP:  81;

KEENE          PTSUNNY   78  57  48 N14G21    30.09R
LEBANON        PTSUNNY   77  53  43 N9G23     30.12R
6HR MIN TEMP:  69; 6HR MAX TEMP:  80;

MT WASHINGTON  FOG       45  45 100 W66G79      N/A  VSB 0
6HR MIN TEMP:  43; 6HR MAX TEMP:  50; 6HR PCP:  0.14;

$$

VTZ005-007-008-291900-
VERMONT

CITY           SKY/WX    TMP DP  RH WIND       PRES   REMARKS
ST JOHNSBURY     N/A     71  55  56 MISG      30.12R
MONTPELIER     MOSUNNY   69  56  62 NW12G20   30.20R
BURLINGTON     MOSUNNY   75  52  44 NW17      30.16S
$$

MAZ007-012-024-CTZ003-RIZ002-NYZ038-NYZ072-291900-
SOUTHERN NEW ENGLAND AND NY

CITY           SKY/WX    TMP DP  RH WIND       PRES   REMARKS
BOSTON         MOSUNNY   88  57  34 NW16G24   30.01S
WORCESTER      SUNNY     82  55  39 NW14G22   30.09S
NANTUCKET      PTSUNNY   79  68  69 W18G25    30.03S
PROVIDENCE     MOSUNNY   89  60  37 W16       30.04R
HARTFORD       MOSUNNY   87  56  34 NW13      30.07S
ALBANY         MOSUNNY   83  59  44 NW17      30.12S
NEW YORK CITY  MOSUNNY   91  59  33 NW9       30.07F HX  90
$$

ANZ081-ANZ082-ANZ150-NHZ014-MEZ023>029-291900-
COASTAL MARINE OBSERVATIONS

STATION/POSITION TIME  TEMP    WIND        PRES    WAVE
                       AIR SEA DIR/SP/G            HT/PER
                 (UTC) (F)     (DEG/KT/KT) (MB)    (FT/S)
MOUNT DESERT ROC 1800   67     280/ 15/ 17 1013.8R
MATINICUS ROCK   1800   71     300/ 27/ 28 1013.9S
ISLE OF SHOALS   1800   76     320/ 24/ 27 1016.0R
JEFFREYS LEDGE   1708      67                N/A     3/13
CASHES LEDGE BUO 1750   69 67  280/ 10/ 12 1015.5R   4/13
GEORGES BANK BUO 1750   71 70              1016.1F   4/12
$$

.............KEY..............
   WCI - WIND CHILL
   TC  - TEMPERATURE IN CELSIUS
   VSB - VISIBILITY IN MILES
   HX  - HEAT INDEX
   FAIR- INDICATES FEW OR NO CLOUDS BELOW 12,000 FT, WITH NO
         SIGNIFICANT WEATHER AND/OR OBSTRUCTIONS TO VISIBILITY.





USA.gov is the U.S. government's official web portal to all federal, state and local government web resources and services.